{"data":{"norad_id":27380,"intl_designator":"2002-007A","name":"INTELSAT 904 (IS-904)","alt_names":[],"object_type":"PAYLOAD","status":"ACTIVE","operator":null,"country":"ITSO","launch_date":"2002-02-23","launch_site_code":"FRGUI","launch_vehicle":null,"mission":null,"orbit_class":"UNKNOWN","rcs_meters":23.7928,"size_class":null,"mass_kg":null,"dimensions":null,"purposes":["comms"],"wikipedia_slug":null,"has_3d_model":false,"image_url":null,"decayed_at":null,"tle_current":{"epoch":"2026-09-19T20:14:32.498880Z","epoch_age_seconds":68461,"freshness":"FRESH","line1":"1 27380U 02007A   26262.84343170 -.00000227  00000+0  00000+0 0  9997","line2":"2 27380   7.1504  68.0077 0003118 110.0001  92.9158  1.00272376 52710","mean_motion":1.00272376,"eccentricity":0.0003118,"inclination_deg":7.1504,"raan_deg":68.0077,"arg_perigee_deg":110.0001,"mean_anomaly_deg":92.9158,"bstar":0,"rev_number":5271,"period_min":1436.0884397513,"perigee_km":35773.282371483,"apogee_km":35799.576195018,"semimajor_km":42164.56628325,"source":"CELESTRAK","updated_at":"2026-09-20T09:00:35.513656Z"}}}